Location: Bednik
(45.3500°N, 16.3833°E)
Time: 15:39:04
(UTC+00:00)

Meteor 1-11 Rocket - Pass Details

Date: 08 August 2020
Orbit: 832 x 915 km, 81.2° (Epoch: 18 September)

Event Time Altitude Azimuth Distance (km) Brightness Sun altitude
Exits shadow 22:09:15 70° 251° (WSW) 913 3.7 -27.8°
Maximum altitude 22:09:37 73° 282° (WNW) 902 3.8 -27.8°
Drops below altitude 10° 22:15:21 10° 7° (N) 2,532 7.0 -28.0°
Sets 22:17:51 0° 10° (N) 3,487 7.9 -28.1°
